Location: Hac?musa Deresi
(39.1694°N, 32.2508°E)
Time: 11:28:18
(UTC+00:00)

SL-08 R/B - Pass Details

Date: 22 April 2026
Orbit: 667 x 728 km, 98.5° (Epoch: 12 May)

Event Time Altitude Azimuth Distance (km) Brightness Sun altitude
Rises 18:30:42 0° 10° (N) 3,157 7.1 -20.7°
Reaches altitude 10° 18:33:00 10° 8° (N) 2,232 6.3 -21.1°
Maximum altitude 18:37:52 67° 286° (WNW) 786 3.7 -21.8°
Enters shadow 18:42:32 11° 204° (SSW) 2,142 5.7 -22.5°
